Regional Weather Roundup
Issued by NWS

Home | Current Version | Previous Version | Graphics & Text | Print | Product List | Glossary On
Versions: 1 2 3 4 5 6 7 8 9 10 11 12 13 14 15 16 17 18 19 20 21 22 23 24 25 26 27 28 29 30 31 32 33 34 35 36 37 38 39 40 41 42 43 44 45 46 47 48 49 50
000
ASUS43 KLSX 232157
RWRMO

WEATHER SUMMARY FOR MISSOURI
NATIONAL WEATHER SERVICE SPRINGFIELD MO
400 PM CST FRI FEB 23 2018

NOTE: "FAIR" INDICATES FEW OR NO CLOUDS BELOW 12,000 FEET WITH NO
       SIGNIFICANT WEATHER AND/OR OBSTRUCTIONS TO VISIBILITY.
       CURRENT SKY AND/OR WEATHER CONDITIONS ARE NOT AVAILABLE FOR
       CHILLICOTHE AND FARMINGTON.

MOZ001>031-035>038-043-044-053-054-232300-
...NORTHERN AND WESTERN MISSOURI...

CITY           SKY/WX    TMP DP  RH WIND       PRES   REMARKS
KANSAS CTY INT CLOUDY    34  29  82 NE3       30.25S
LEE`S SUMMIT   CLOUDY    35  31  85 NE3       30.25S
ST JOSEPH      CLOUDY    36  30  79 N7        30.27F
CHILLICOTHE      N/A     39  30  70 N7        30.27S

$$
MOZ066>068-077>081-088>096-101>105-232300-
...SOUTHWEST MISSOURI...

CITY           SKY/WX    TMP DP  RH WIND       PRES   REMARKS
SPRINGFIELD    LGT RAIN  46  44  93 W3        30.21S
JOPLIN         LGT RAIN  42  42 100 NE8       30.20R FOG
BRANSON        LGT RAIN  45  45 100 E6        30.23F FOG

$$
MOZ032>034-039>042-045>050-055>058-069>072-232300-
...CENTRAL MISSOURI...

CITY           SKY/WX    TMP DP  RH WIND       PRES   REMARKS
COLUMBIA       NOT AVBL
JEFFERSON CITY CLOUDY    40  36  86 N3        30.25F
ROLLA          CLOUDY    44  42  93 E3        30.23F
SEDALIA        CLOUDY    38  36  92 NE6       30.26F

$$
MOZ051-052-059>065-232300-
...EAST CENTRAL MISSOURI...

CITY           SKY/WX    TMP DP  RH WIND       PRES   REMARKS
ST LOUIS INTL  NOT AVBL

$$
MOZ072>076-082>087-097>100-106>115-232300-
...SOUTH CENTRAL AND SOUTHEAST MISSOURI...

CITY           SKY/WX    TMP DP  RH WIND       PRES   REMARKS
CAPE GIRARDEAU PTSUNNY   56  50  80 CALM      30.23F
POPLAR BLUFF   CLOUDY    52  49  89 MISG      30.23F
WEST PLAINS    CLOUDY    48  46  93 NW6       30.24R

$$


USA.gov is the U.S. government's official web portal to all federal, state and local government web resources and services.